Regional Weather Roundup
Issued by NWS

Home | Current Version | Previous Version | Text Only | Print | Product List | Glossary On
Versions: 1 2 3 4 5 6 7 8 9 10 11 12 13 14 15 16 17 18 19 20 21 22 23 24 25 26 27 28 29 30 31 32 33 34 35 36 37 38 39 40 41 42 43 44 45 46 47 48 49 50
000
ASUS43 KDTX 020910
RWRMI
MICHIGAN HOURLY REGIONAL WEATHER ROUNDUP
NATIONAL WEATHER SERVICE DETROIT/PONTIAC MI
ISSUED BY NATIONAL WEATHER SERVICE GRAND RAPIDS MI
400 AM EST FRI DEC 02 2016

NOTE: "FAIR" INDICATES FEW OR NO CLOUDS BELOW 12,000 FEET WITH NO
SIGNIFICANT WEATHER AND/OR OBSTRUCTION TO VISIBILITY.

MIZ047>049-052>055-059>063-066>070-074>076-081>083-021000-
SOUTHEAST LOWER MICHIGAN

CITY           SKY/WX    TMP DP  RH WIND       PRES   REMARKS
ADRIAN         CLOUDY    35  33  92 W7        29.98R WCI  29
ALMA           CLOUDY    36  34  94 W8        29.93R WCI  29
ANN ARBOR      CLOUDY    37  34  89 SW14      29.94R WCI  28
BAD AXE        CLOUDY    37  32  82 W9        29.87S WCI  30
DETROIT CITY   CLOUDY    38  35  89 W12       29.93R WCI  30
DETROIT        LGT RAIN  39  34  82 SW12G22   29.95S WCI  32
FLINT          CLOUDY    38  35  89 W12       29.91S WCI  30
GROSSE ILE     CLOUDY    38  32  81 W9        29.94S WCI  31
HILLSDALE      CLOUDY    34  32  93 W9G16     29.95S WCI  26
HOWELL         CLOUDY    37  34  91 W8        29.92S WCI  30

CITY           SKY/WX    TMP DP  RH WIND       PRES   REMARKS
JACKSON        CLOUDY    37 N/A N/A W9        29.94S WCI  30
LANSING        CLOUDY    38  33  82 W9        29.94R WCI  31
MASON          CLOUDY    36  35  96 SW7       29.94S WCI  31
MONROE         CLOUDY    36  33  89 W12       29.96S WCI  28
MT. CLEMENS    MOCLDY    39  36  87 W13       29.89S WCI  32
PONTIAC        CLOUDY    37  34  89 W13       29.90R WCI  29
PORT HOPE        N/A     38  30  73 W8        29.84R WCI  32
PORT HURON     CLOUDY    39  34  81 W7        29.89S WCI  34
TRI CITIES     CLOUDY    37  34  89 W12       29.91R WCI  29
YPSILANTI      CLOUDY    39  34  82 W13       29.95R WCI  31
$$
MIZ043>046-050>051-056>058-064>065-071>073-077>080-021000-
SOUTHWEST LOWER MICHIGAN

CITY           SKY/WX    TMP DP  RH WIND       PRES   REMARKS
BATTLE CREEK   CLOUDY    37  35  92 SW13      29.96S WCI  29
BENTON HARBOR  CLOUDY    40  31  70 W16       30.00R WCI  31
BIG RAPIDS     CLOUDY    35  32  89 NW6       29.92R WCI  30
COLDWATER      CLOUDY    36  33  87 SW10      29.97S WCI  29
HOLLAND        CLOUDY    39  34  82 W10       29.97R WCI  32
GRAND RAPIDS   CLOUDY    38  31  76 W7        29.95R WCI  33
KALAMAZOO      CLOUDY    37  33  85 SW10      29.97R WCI  30
MARSHALL       CLOUDY    37  35  94 SW12      29.95S WCI  29
MOUNT PLEASANT CLOUDY    35  32  88 NW6       29.91R WCI  30
MUSKEGON       CLOUDY    40  30  67 NW10G20   29.96R WCI  33
STURGIS        CLOUDY    37  32  84 W9        29.99R WCI  30
$$
MIZ016>042-021000-
NORTHERN LOWER MICHIGAN

CITY           SKY/WX    TMP DP  RH WIND       PRES   REMARKS
ALPENA         CLOUDY    35  29  78 W8G17     29.82R WCI  29
BEAVER ISLAND  CLOUDY    34  29  80 W13G18    29.88S WCI  25
BELLAIRE       LGT SNOW  34  30  86 W3        29.90R
CADILLAC       CLOUDY    32  28  83 W8        29.89R WCI  25
CHARLEVOIX     CLOUDY    36  29  75 NW16G22   29.91R WCI  27
GAYLORD        CLOUDY    33  28  81 W9        29.84R WCI  25
HOUGHTON LAKE  CLOUDY    34  23  64 W17G24    29.88R WCI  23
MANISTEE       CLOUDY    37  26  64 W14G22    29.93  WCI  28
OSCODA         CLOUDY    35  29  79 MISG      29.85R
PELLSTON       CLOUDY    35  27  72 W16G25    29.85R WCI  25
TRAVERSE CITY  CLOUDY    36  26  67 W8        29.91R WCI  30
LUDINGTON      CLOUDY    36  29  76 NW8       29.94S WCI  30
$$
MIZ007>008-015-021000-
EASTERN UPPER MICHIGAN

CITY           SKY/WX    TMP DP  RH WIND       PRES   REMARKS
KINROSS        LGT SNOW  32  32 100 W8        29.79R FOG     WCI  25
MACKINAC ISLAN CLOUDY    34  30  86 W14G24    29.82S WCI  25
NEWBERRY       LGT SNOW  32  31  96 W10       29.83R WCI  24
S. S. MARIE    LGT SNOW  34  32  92 NW8       29.77S FOG     WCI  27
$$
MIZ004>006-011>014-085-021000-
CENTRAL UPPER MICHIGAN

CITY           SKY/WX    TMP DP  RH WIND       PRES   REMARKS
MANISTIQUE     CLOUDY    32  28  83 W15G21    29.88S WCI  22
ESCANABA       CLOUDY    31  24  75 W9        29.95R WCI  23
MENOMINEE      PTCLDY    31  24  75 NW3       29.98R
SAWYER-GWINN   CLOUDY    28  24  85 NW9       29.92R WCI  20
$$
MIZ001>003-009>011-084-021000-
WESTERN UPPER MICHIGAN

CITY           SKY/WX    TMP DP  RH WIND       PRES   REMARKS
IRON MOUNTAIN  CLOUDY    29  20  69 NW16G23   29.94R WCI  17
HOUGHTON       LGT SNOW  30  26  85 NW12      29.93R FOG     WCI  20
COPPER HARBOR    N/A     34  31  88 N22       29.92R WCI  22
IRONWOOD       CLOUDY    28  25  88 NW7       30.01R WCI  21
$$

ABBREVIATIONS USED IN REMARKS
   TC - TEMPERATURE IN CELSIUS
  WCI - WIND CHILL INDEX
   HX - HEAT INDEX
  VSB - VISIBILITY





USA.gov is the U.S. government's official web portal to all federal, state and local government web resources and services.